Location: Chassagnes
(44.4047°N, 4.1657°E)
Time: 11:39:51
(UTC+00:00)

Meteor 2-21 - Pass Details

Date: 27 October 2020
Orbit: 933 x 967 km, 82.5° (Epoch: 23 November)

Event Time Altitude Azimuth Distance (km) Brightness Sun altitude
Rises 16:52:51 0° 353° (N) 3,650 7.4 -3.1°
Reaches altitude 10° 16:55:24 10° 357° (N) 2,695 6.7 -3.6°
Maximum altitude 17:01:31 63° 79° (ENE) 1,052 4.5 -4.6°
Drops below altitude 10° 17:07:32 10° 160° (SSE) 2,654 6.7 -5.7°
Sets 17:10:02 0° 163° (SSE) 3,590 7.4 -6.1°
